Regional Weather Roundup
Issued by NWS

Home | Current Version | Previous Version | Graphics & Text | Print | Product List | Glossary On
Versions: 1 2 3 4 5 6 7 8 9 10 11 12 13 14 15 16 17 18 19 20 21 22 23 24 25 26 27 28 29 30 31 32 33 34 35 36 37 38 39 40 41 42 43 44 45 46 47 48 49 50
000
ASUS44 KMEG 301600
RWRTN
TENNESSEE HOURLY STATE WEATHER ROUNDUP
NATIONAL WEATHER SERVICE MEMPHIS TN
1000 AM CST FRI JAN 30 2015

TNZ002-004-019-021-049-052-054-088>092-301700-
WEST TENNESSEE

CITY           SKY/WX    TMP DP  RH WIND       PRES   REMARKS
MEMPHIS INTL   MOSUNNY   43  25  49 NE15      30.51R
NWS MEMPHIS      N/A     40 N/A N/A MISG        N/A
JACKSON        SUNNY     40  24  53 NE8       30.52R WCI  34
DYERSBURG      MOSUNNY   39  18  41 NE12      30.55R WCI  32
UNION CITY     SUNNY     36  23  60 NE8       30.52S WCI  29
PARIS          PTSUNNY   34  21  60 N10       30.52R WCI  26
LEXINGTON        N/A     36  21  55 MISG      30.49R
SAVANNAH       MOSUNNY   39  25  56 NE9       30.50S WCI  33
$$

TNZ008-025-027-028-033-062-065-066-301700-
NORTH MIDDLE TENNESSEE

CITY           SKY/WX    TMP DP  RH WIND       PRES   REMARKS
NASHVILLE      MOSUNNY   41  21  44 N9G20     30.49R
CLARKSVILLE    CLOUDY    37  25  61 N13       30.51R WCI  29
COOKEVILLE     PTSUNNY   37  23  56 N12       30.42R WCI  30
CROSSVILLE     PTSUNNY   33  21  61 N14G22    30.37R WCI  23
$$

TNZ061-075-076-078-094-096-097-301700-
SOUTH MIDDLE TENNESSEE

CITY           SKY/WX    TMP DP  RH WIND       PRES   REMARKS
FAYETTEVILLE   PTSUNNY   34  21  60 MISG      30.45R
TULLAHOMA      PTSUNNY   34  21  60 N12       30.45R WCI  25
WINCHESTER     CLOUDY    36  25  64 N13       30.45R WCI  27
COLUMBIA       PTSUNNY   37  25  60 N7        30.47S WCI  32
SHELBYVILLE    CLOUDY    37  25  60 N10       30.48R WCI  30
$$

TNZ017-018-042-046-047-301700-
NORTHEAST TENNESSEE

CITY           SKY/WX    TMP DP  RH WIND       PRES   REMARKS
TRI CITIES     CLOUDY    35  22  58 NW12      30.29R WCI  27
ELIZABETHTON   LGT RAIN  32  19  59 W16       30.27R WCI  21
$$

TNZ012-013-036-069-073-074-301700-
CENTRAL EAST TENNESSEE

CITY           SKY/WX    TMP DP  RH WIND       PRES   REMARKS
KNOXVILLE      CLOUDY    37  25  61 N5        30.38R WCI  33
OAK RIDGE      MOSUNNY   39  20  46 N10G23    30.40R WCI  32
GATLINBURG     CLOUDY    36  21  55 NW9       30.37R WCI  29
$$

TNZ083-085-099-301700-
SOUTHEAST TENNESSEE

CITY           SKY/WX    TMP DP  RH WIND       PRES   REMARKS
CHATTANOOGA    PTSUNNY   42  24  49 N16G24    30.42R
$$

SKY/WX REPORTED AS FAIR MEANS FEW OR NO CLOUDS BELOW
12 THOUSAND FEET.



USA.gov is the U.S. government's official web portal to all federal, state and local government web resources and services.